Regional Weather Roundup
Issued by NWS

Home | Current Version | Previous Version | Graphics & Text | Print | Product List | Glossary On
Versions: 1 2 3 4 5 6 7 8 9 10 11 12 13 14 15 16 17 18 19 20 21 22 23 24 25 26 27 28 29 30 31 32 33 34 35 36 37 38 39 40 41 42 43 44 45 46 47 48 49 50
000
ASUS43 KIND 301909
RWRIN

WEATHER ROUNDUP FOR INDIANA
NATIONAL WEATHER SERVICE INDIANAPOLIS IN
300 PM EDT MON MAR 30 2015

NOTE: "FAIR" INDICATES FEW OR NO CLOUDS BELOW 12,000 FEET WITH NO
SIGNIFICANT WEATHER AND/OR OBSTRUCTIONS TO VISIBILITY.

* - STATION DOES NOT REPORT WEATHER SUCH AS PRECIPITATION OR FOG.

+ - STATION NOT QUALITY CONTROLLED BY THE NATIONAL WEATHER SERVICE.
    USE DATA WITH CAUTION...ESPECIALLY DEWPOINT AND RELATIVE
    HUMIDITY OBSERVATIONS.

INZ001>003-010>013-019-020-302000-
NORTHWEST INDIANA

CITY           SKY/WX    TMP DP  RH WIND       PRES   REMARKS
GARY /AIRPORT/ MOSUNNY   61  19  20 W14       30.02F
KNOX *+          N/A     59 -11   5 W18       30.02F
LA PORTE +     MOSUNNY   58  27  30 NW12G18   30.02F
MICHIGAN CITY+ PTSUNNY   55  18  22 W10       30.02F
MONTICELLO +   MOSUNNY   58  34  40 W13G21    30.05F
RENSSELAER +   MOSUNNY   59  34  38 SW12G18   30.05F
VALPARAISO     MOSUNNY   57  28  33 W18G25    30.02F

$$

LMZ046-743>745-302000-
SOUTHERN LAKE MICHIGAN

STATION/POSITION TIME  TEMP WIND        PRES
                       AIR  DIR/SP/G
                 (UTC) (F)  (DEG/KT/KT) (MB)
BURNS HARBOR     1900   55   CALM  /  2 1017.3S
MICHIGAN CITY    1900   50  210/  8/  9   N/A

$$

INZ004-005-014>016-021>024-302000-
NORTH CENTRAL INDIANA

CITY           SKY/WX    TMP DP  RH WIND       PRES   REMARKS
ELKHART        SUNNY     55  16  21 NW17G28   30.01S
GOSHEN         SUNNY     57  25  29 W22G28    30.00S
LOGANSPORT +   MOSUNNY   57  30  35 W14G23    30.06F
PERU/GRISSOM   MOSUNNY   57  30  36 W16G25    30.04F
ROCHESTER +    SUNNY     59  27  29 W17G28    30.03F
SOUTH BEND     MOSUNNY   57  19  22 W18G28    30.02F
WARSAW +       SUNNY     55  27  33 NW21G28   30.01S

$$

INZ006>009-017-018-025>027-302000-
NORTHEAST INDIANA

CITY           SKY/WX    TMP DP  RH WIND       PRES   REMARKS
ANGOLA *+      MOSUNNY   55  27  33 NW21      29.97S
AUBURN +       SUNNY     55  23  28 NW20G33   29.99F
FORT WAYNE     PTSUNNY   57  27  31 W22G31    30.00F
HUNTINGTON +   MOSUNNY   57  21  24 W17G28    30.01F

$$

INZ028-029-035-036-043>045-051>053-302000-
WEST CENTRAL INDIANA

CITY           SKY/WX    TMP DP  RH WIND       PRES   REMARKS
CRAWFORDSVL +    N/A    N/A N/A N/A MISG        N/A
GREENCASTLE +  SUNNY     57  25  28 NW5       30.10F
LAFAYETTE      SUNNY     59  30  33 W13G25    30.07F
TERRE HAUTE    SUNNY     59  34  39 W9        30.10F

$$

INZ030>032-037>040-046>048-054>057-064-065-302000-
CENTRAL INDIANA

CITY           SKY/WX    TMP DP  RH WIND       PRES   REMARKS
ANDERSON       MOSUNNY   55  27  33 W17G29    30.07F
CP ATTERBURY + SUNNY     61  30  31 NW15      30.10F
FISHERS *+     SUNNY     57  36  44 W14G23    30.07F
FRANKFORT +    MOSUNNY   58  36  42 W17G26    30.08F
GREENWOOD *+   SUNNY     57  27  30 W15G23    30.09F
INDIANAPOLIS   MOSUNNY   59  29  31 NW22      30.07F
-EAGLE CREEK   SUNNY     57  31  37 NW15      30.07F
KOKOMO *+        N/A     57  34  41 W23       30.05F
MARION +       MOSUNNY   56  31  38 W18G26    30.05F
MT COMFORT *+  SUNNY     59  16  18 W17G23    30.08F
SHELBYVILLE    SUNNY     60  32  34 W14       30.08F
ZIONSVILLE +   MOSUNNY   57  30  35 W15G26    30.08F

$$

INZ033-034-041-042-049-050-058-059-302000-
EAST CENTRAL INDIANA

CITY           SKY/WX    TMP DP  RH WIND       PRES   REMARKS
MUNCIE         MOSUNNY   56  32  40 W15G24    30.05F

$$

INZ060-061-067>069-081>083-085>088-302000-
SOUTHWEST INDIANA

CITY           SKY/WX    TMP DP  RH WIND       PRES   REMARKS
EVANSVILLE     SUNNY     63  30  28 VRB6      30.16F
HUNTINGBURG *+ SUNNY     61  32  33 N7        30.15F
WASHINGTON +   SUNNY     60  23  24 NW8       30.12F

$$

INZ062-063-066-070>080-084-089>092-302000-
SOUTH CENTRAL AND SOUTHEAST INDIANA

CITY           SKY/WX    TMP DP  RH WIND       PRES   REMARKS
BEDFORD +      SUNNY     61  25  25 NW6       30.11F
BLOOMINGTON    SUNNY     59  29  31 W14       30.10F
NORTH VERNON + SUNNY     59  25  27 NW14G21   30.11F
SEYMOUR +      SUNNY     63  32  31 NW7G21    30.10F

$$




USA.gov is the U.S. government's official web portal to all federal, state and local government web resources and services.